This is the latest recevied weather packets stored in our database for station/object KA1AL. If no packets are shown the sender has not sent any weather packets the latest 10 day(s).
| Time | Temp. | Humidity | Pressure | Rain* | Wind** | Luminosity | Snow |
|---|---|---|---|---|---|---|---|
| 1778080538 | 12.78° C | 96% | 1008 hPa | 0 mm | - | 152 W/m² | - |
| 1778080235 | 12.78° C | 96% | 1008.4 hPa | 0 mm | - | 152 W/m² | - |
| 1778079932 | 12.78° C | 96% | 1008.2 hPa | 0 mm | - | 181 W/m² | - |
| 1778079629 | 12.78° C | 96% | 1008.1 hPa | 0 mm | - | 218 W/m² | - |
| 1778079325 | 12.78° C | 96% | 1008.1 hPa | 0 mm | - | 248 W/m² | - |
| 1778079023 | 12.78° C | 95% | 1008.1 hPa | 0 mm | - | 204 W/m² | - |
| 1778078719 | 12.78° C | 95% | 1008.1 hPa | 0 mm | - | 183 W/m² | - |
| 1778078417 | 12.78° C | 96% | 1008 hPa | 0 mm | - | 214 W/m² | - |
| 1778078115 | 12.78° C | 97% | 1007.7 hPa | 0 mm | - | 184 W/m² | - |
| 1778077813 | 12.78° C | 97% | 1007.9 hPa | 0 mm | - | 175 W/m² | - |
| 1778077510 | 12.22° C | 98% | 1008.2 hPa | 0 mm | - | 190 W/m² | - |
| 1778077208 | 12.22° C | 98% | 1008 hPa | 0 mm | - | 197 W/m² | - |
| 1778076906 | 12.22° C | 98% | 1008.1 hPa | 0 mm | - | 187 W/m² | - |
| 1778076604 | 12.22° C | 99% | 1008.3 hPa | 0 mm | - | 210 W/m² | - |
| 1778076301 | 12.22° C | 99% | 1008.4 hPa | 0 mm | - | 147 W/m² | - |
| 1778075997 | 12.22° C | 99% | 1008.5 hPa | 0 mm | - | 167 W/m² | - |
| 1778075695 | 11.67° C | 99% | 1008.3 hPa | 0 mm | - | 141 W/m² | - |
| 1778075390 | 11.67° C | 99% | 1008.4 hPa | 0 mm | - | 117 W/m² | - |
| 1778075087 | 11.67° C | 99% | 1008.5 hPa | 0 mm | - | 93 W/m² | - |
| 1778074784 | 11.67° C | 99% | 1008.6 hPa | 0 mm | - | 93 W/m² | - |
| 1778074481 | 11.67° C | 99% | 1008.8 hPa | 0 mm | - | 95 W/m² | - |
| 1778074177 | 11.67° C | 99% | 1009.1 hPa | 0 mm | - | 77 W/m² | - |
| 1778073875 | 11.67° C | 99% | 1009 hPa | 0 mm | - | 75 W/m² | - |
| 1778073572 | 11.67° C | 99% | 1008.8 hPa | 0 mm | - | 69 W/m² | - |
| 1778073268 | 11.67° C | 99% | 1009.3 hPa | 0 mm | - | 53 W/m² | - |
* Rain latest hour (hover to see other rain measurements)
** Current wind speed in m/s (hover to see current wind gust speed)